When you browse on this site, cookies collect data to enhance your experience and personalize the content and advertising you see.
Visit our Privacy Policy to learn more. By continuing to use the site, you agree to this use of cookies and data.
  • en France
  • Liste des pays
  • À 7 jours
  • Température de l'eau
  • Carte météo
  • Widgets météo
  • user-avatar
    Se connecter

    Météo par heure à Bukavu

    Ce jour, 21 Novembre, Jeudi

    Heure Température Précipitation Vent Pression Humidité
    00:00 +19°C° 0 mm 0 m/s 686 mmHg 96%
    01:00 +19°C° 0 mm 0 m/s 686 mmHg 96%
    02:00 +19°C° 0 mm 0 m/s 686 mmHg 96%
    03:00 +19°C° 0 mm 0 m/s 686 mmHg 96%
    04:00 +18°C° 0 mm 0 m/s 686 mmHg 97%
    05:00 +20°C° 0 mm 1 m/s 686 mmHg 97%
    06:00 +22°C° 0 mm 1 m/s 687 mmHg 92%
    07:00 +23°C° 0 mm 1 m/s 687 mmHg 88%
    08:00 +25°C° 0 mm 1 m/s 688 mmHg 83%
    09:00 +27°C° 0 mm 1 m/s 688 mmHg 72%
    10:00 +29°C° 0 mm 1 m/s 688 mmHg 61%
    11:00 +31°C° 0 mm 1 m/s 688 mmHg 50%
    12:00 +32°C° 0 mm 1 m/s 687 mmHg 48%
    13:00 +32°C° 0 mm 1 m/s 687 mmHg 46%
    14:00 +33°C° 0 mm 1 m/s 686 mmHg 44%
    15:00 +31°C° 0 mm 1 m/s 686 mmHg 52%
    16:00 +30°C° 0 mm 1 m/s 685 mmHg 60%
    17:00 +28°C° 0 mm 1 m/s 685 mmHg 68%
    18:00 +26°C° 0.1 mm 1 m/s 685 mmHg 74%
    19:00 +25°C° 0.1 mm 1 m/s 686 mmHg 80%
    20:00 +23°C° 0.1 mm 1 m/s 686 mmHg 86%
    21:00 +23°C° 0 mm 1 m/s 686 mmHg 88%
    22:00 +22°C° 0 mm 1 m/s 686 mmHg 90%
    23:00 +22°C° 0 mm 1 m/s 686 mmHg 92%

    Demain, 22 Novembre, Vendredi

    Heure Température Précipitation Vent Pression Humidité
    00:00 +20°C° 0 mm 0 m/s 686 mmHg 93%
    01:00 +19°C° 0 mm 0 m/s 685 mmHg 93%
    02:00 +19°C° 0 mm 0 m/s 685 mmHg 94%
    03:00 +19°C° 0 mm 0 m/s 685 mmHg 94%
    04:00 +19°C° 0 mm 0 m/s 685 mmHg 94%
    05:00 +19°C° 0 mm 0 m/s 685 mmHg 94%
    06:00 +20°C° 0 mm 0 m/s 686 mmHg 88%
    07:00 +24°C° 0 mm 1 m/s 687 mmHg 81%
    08:00 +26°C° 0 mm 1 m/s 688 mmHg 74%
    09:00 +28°C° 0 mm 1 m/s 688 mmHg 63%
    10:00 +30°C° 0 mm 1 m/s 688 mmHg 52%
    11:00 +32°C° 0 mm 2 m/s 688 mmHg 41%
    12:00 +32°C° 0 mm 2 m/s 687 mmHg 41%
    13:00 +34°C° 0 mm 2 m/s 687 mmHg 40%
    14:00 +34°C° 0 mm 2 m/s 686 mmHg 39%
    15:00 +31°C° 0 mm 2 m/s 686 mmHg 48%
    16:00 +29°C° 0 mm 1 m/s 686 mmHg 57%
    17:00 +28°C° 0 mm 1 m/s 685 mmHg 66%
    18:00 +26°C° 0.1 mm 1 m/s 686 mmHg 71%
    19:00 +24°C° 0.1 mm 1 m/s 686 mmHg 76%
    20:00 +21°C° 0.1 mm 0 m/s 687 mmHg 81%
    21:00 +23°C° 0.1 mm 1 m/s 687 mmHg 85%
    22:00 +22°C° 0.1 mm 1 m/s 687 mmHg 88%
    23:00 +22°C° 0.1 mm 1 m/s 687 mmHg 91%

    Après-demain, 23 Novembre, Samedi

    Heure Température Précipitation Vent Pression Humidité
    00:00 +22°C° 0 mm 1 m/s 687 mmHg 93%
    01:00 +21°C° 0 mm 1 m/s 687 mmHg 95%
    02:00 +21°C° 0 mm 1 m/s 687 mmHg 97%
    03:00 +21°C° 0 mm 1 m/s 687 mmHg 97%
    04:00 +21°C° 0 mm 1 m/s 687 mmHg 96%
    05:00 +21°C° 0 mm 1 m/s 687 mmHg 96%
    06:00 +22°C° 0 mm 1 m/s 688 mmHg 93%
    07:00 +22°C° 0 mm 1 m/s 689 mmHg 91%
    08:00 +23°C° 0 mm 1 m/s 689 mmHg 88%
    09:00 +24°C° 0 mm 1 m/s 690 mmHg 80%
    10:00 +26°C° 0 mm 1 m/s 690 mmHg 72%
    11:00 +27°C° 0 mm 1 m/s 690 mmHg 64%
    12:00 +26°C° 1.3 mm 1 m/s 689 mmHg 75%
    13:00 +24°C° 1.3 mm 1 m/s 688 mmHg 86%
    14:00 +22°C° 1.3 mm 1 m/s 688 mmHg 96%
    15:00 +22°C° 0.5 mm 1 m/s 688 mmHg 97%
    16:00 +21°C° 0.5 mm 1 m/s 688 mmHg 97%
    17:00 +19°C° 0.5 mm 0 m/s 688 mmHg 97%
    18:00 +19°C° 0 mm 0 m/s 688 mmHg 97%
    19:00 +18°C° 0 mm 0 m/s 688 mmHg 97%
    20:00 +18°C° 0 mm 0 m/s 688 mmHg 97%
    21:00 +18°C° 0.1 mm 0 m/s 688 mmHg 97%
    22:00 +18°C° 0.1 mm 0 m/s 689 mmHg 97%
    23:00 +18°C° 0.1 mm 0 m/s 689 mmHg 98%

    24 Novembre, Dimanche

    Heure Température Précipitation Vent Pression Humidité
    00:00 +17°C° 0.1 mm 0 m/s 689 mmHg 98%
    01:00 +17°C° 0.1 mm 0 m/s 688 mmHg 98%
    02:00 +17°C° 0.1 mm 0 m/s 688 mmHg 98%
    03:00 +17°C° 0.1 mm 0 m/s 688 mmHg 99%
    04:00 +17°C° 0.1 mm 0 m/s 688 mmHg 99%
    05:00 +17°C° 0.1 mm 0 m/s 688 mmHg 99%
    06:00 +18°C° 0.1 mm 0 m/s 689 mmHg 98%
    07:00 +18°C° 0.1 mm 0 m/s 689 mmHg 98%
    08:00 +19°C° 0.1 mm 0 m/s 690 mmHg 98%
    09:00 +20°C° 0.2 mm 0 m/s 690 mmHg 92%
    10:00 +22°C° 0.2 mm 0 m/s 690 mmHg 86%
    11:00 +23°C° 0.2 mm 0 m/s 690 mmHg 81%
    12:00 +23°C° 1 mm 0 m/s 690 mmHg 85%
    13:00 +22°C° 1 mm 0 m/s 689 mmHg 89%
    14:00 +22°C° 1 mm 0 m/s 688 mmHg 93%
    15:00 +22°C° 0.7 mm 0 m/s 688 mmHg 94%
    16:00 +21°C° 0.7 mm 0 m/s 688 mmHg 96%
    17:00 +21°C° 0.7 mm 0 m/s 688 mmHg 97%
    18:00 +20°C° 0.1 mm 0 m/s 688 mmHg 97%
    19:00 +19°C° 0.1 mm 0 m/s 688 mmHg 98%
    20:00 +18°C° 0.1 mm 0 m/s 688 mmHg 99%
    21:00 +18°C° 0 mm 0 m/s 688 mmHg 99%
    22:00 +18°C° 0 mm 0 m/s 688 mmHg 99%
    23:00 +17°C° 0 mm 0 m/s 688 mmHg 99%

    25 Novembre, Lundi

    Heure Température Précipitation Vent Pression Humidité
    00:00 +17°C° 0 mm 0 m/s 688 mmHg 99%
    01:00 +17°C° 0 mm 0 m/s 687 mmHg 99%
    02:00 +17°C° 0 mm 0 m/s 687 mmHg 99%
    03:00 +17°C° 0 mm 0 m/s 687 mmHg 99%
    04:00 +17°C° 0 mm 0 m/s 687 mmHg 99%
    05:00 +17°C° 0 mm 0 m/s 687 mmHg 99%
    06:00 +18°C° 0 mm 0 m/s 688 mmHg 98%
    07:00 +20°C° 0 mm 1 m/s 688 mmHg 96%
    08:00 +21°C° 0 mm 1 m/s 689 mmHg 95%
    09:00 +23°C° 0 mm 1 m/s 689 mmHg 86%
    10:00 +25°C° 0 mm 1 m/s 689 mmHg 76%
    11:00 +26°C° 0 mm 1 m/s 689 mmHg 66%
    12:00 +27°C° 0.1 mm 1 m/s 689 mmHg 64%
    13:00 +28°C° 0.1 mm 1 m/s 689 mmHg 61%
    14:00 +29°C° 0.1 mm 1 m/s 688 mmHg 58%
    15:00 +27°C° 0.9 mm 1 m/s 688 mmHg 71%
    16:00 +24°C° 0.9 mm 1 m/s 687 mmHg 84%
    17:00 +21°C° 0.9 mm 2 m/s 687 mmHg 97%
    18:00 +21°C° 0.5 mm 1 m/s 687 mmHg 97%
    19:00 +21°C° 0.5 mm 1 m/s 688 mmHg 98%
    20:00 +18°C° 0.5 mm 0 m/s 688 mmHg 98%
    21:00 +18°C° 0 mm 0 m/s 688 mmHg 98%
    22:00 +18°C° 0 mm 0 m/s 688 mmHg 98%
    23:00 +18°C° 0 mm 0 m/s 688 mmHg 98%

    26 Novembre, Mardi

    Heure Température Précipitation Vent Pression Humidité
    00:00 +18°C° 0 mm 0 m/s 687 mmHg 98%
    01:00 +20°C° 0 mm 1 m/s 687 mmHg 98%
    02:00 +19°C° 0 mm 1 m/s 686 mmHg 97%
    03:00 +19°C° 0 mm 1 m/s 686 mmHg 97%
    04:00 +19°C° 0 mm 1 m/s 687 mmHg 97%
    05:00 +19°C° 0 mm 1 m/s 687 mmHg 97%
    06:00 +20°C° 0 mm 1 m/s 687 mmHg 96%
    07:00 +20°C° 0 mm 1 m/s 688 mmHg 95%
    08:00 +21°C° 0 mm 1 m/s 688 mmHg 94%
    09:00 +21°C° 0.2 mm 1 m/s 688 mmHg 94%
    10:00 +19°C° 0.2 mm 0 m/s 688 mmHg 95%
    11:00 +20°C° 0.2 mm 0 m/s 688 mmHg 95%
    12:00 +20°C° 0.1 mm 0 m/s 688 mmHg 95%
    13:00 +20°C° 0.1 mm 0 m/s 687 mmHg 94%
    14:00 +20°C° 0.1 mm 0 m/s 686 mmHg 94%
    15:00 +21°C° 0.2 mm 0 m/s 686 mmHg 92%
    16:00 +22°C° 0.2 mm 0 m/s 687 mmHg 89%
    17:00 +24°C° 0.2 mm 1 m/s 687 mmHg 86%
    18:00 +23°C° 0 mm 1 m/s 687 mmHg 90%
    19:00 +20°C° 0 mm 0 m/s 687 mmHg 94%
    20:00 +19°C° 0 mm 0 m/s 687 mmHg 97%
    21:00 +19°C° 0 mm 0 m/s 687 mmHg 98%
    22:00 +19°C° 0 mm 0 m/s 687 mmHg 98%
    23:00 +20°C° 0 mm 1 m/s 687 mmHg 99%
    Voir plus